Find Starlink 5699

NORAD ID: 55449 Int'l Des: 2023-015 Owner: SPXS Country: US Constellation: starlink operational
LEOCIRCULAR

リアルタイム位置

3D地球を読み込み中...

Starlink 5699について

説明を読み込み中...

次回通過

Passes for default location (London). Set your location on the main map for personalized predictions.

高度履歴

Loading altitude history...

軌道要素

1 55449U 23015A 26121.08658610 .00058351 00000-0 21340-2 0 9998
2 55449 43.0044 32.9682 0001508 276.4923 83.5757 15.27258843179671
Epoch: May 1, 2026 • Age: 16 hours

現在のステータス

高度 486.5 km
速度 7.63 km/s
衛星直下点 37.39°N, 46.56°W
打ち上げ日 Feb 2, 2023
運用期間 3.2 years
タイプ internet

技術仕様

分類 Payload
質量 305.00 kg
乾燥質量 290.00 kg
総質量 305.00 kg
長さ 0.20 m
直径 2.80 m
スパン 9.00 m
形状 Box + pan
製造者 SPXS
バスタイプ Starlink
フェーズステータス In Orbit
所有者/国 SPXS/US

Most Searched